Location: Bern�tre
(50.1974°N, 2.0915°E)
Time: 02:18:40
(UTC+00:00)

NOSS 2-2 (E) - Pass Details

Date: 18 September 2020
Orbit: 468 x 1739 km, 63.3° (Epoch: 22 October)

Event Time Altitude Azimuth Distance (km) Brightness Sun altitude
Rises 19:11:45 0° 210° (SSW) 2,495 6.8 -12.5°
Reaches altitude 10° 19:13:48 10° 206° (SSW) 1,629 5.8 -12.8°
Maximum altitude 19:17:14 56° 127° (SE) 599 3.1 -13.3°
Drops below altitude 10° 19:21:11 10° 49° (NE) 1,872 5.7 -13.9°
Sets 19:23:40 0° 45° (NE) 2,919 6.8 -14.3°
